Regional Weather Roundup
Issued by NWS Charleston, SC

Current Version | Previous Version | Graphics & Text | Print | Product List | Glossary On
Versions: 1 2 3 4 5 6 7 8 9 10 11 12 13 14 15 16 17 18 19 20 21 22 23 24 25 26 27 28 29 30 31 32 33 34 35 36 37 38 39 40 41 42 43 44 45 46 47 48 49 50
000
ASUS42 KCHS 191727
RWRCHS

Regional Weather Roundup
National Weather Service Charleston SC
1200 PM EST MON FEB 19 2018

NOTE: "fair" indicates few or no clouds below 12,000 feet with no
significant weather and/or obstructions to visibility.

Not all stations are quality controlled. Use data with caution,
especially dewpoint observations.

SCZ027-030-031-034>040-042>050-191800-
...Southeast South Carolina...

CITY           SKY/WX    TMP DP  RH WIND       PRES   REMARKS
N Charleston   PTSUNNY   69  61  75 CALM      30.39F
Waterfront Prk NOT AVBL
Mount Pleasant FAIR      72  64  78 E3        30.40F
Johns Island   CLOUDY    70  66  88 E7        30.39F
Pinopolis        N/A     55  54  94 N6        30.33F
Moncks Corner  CLOUDY    61  55  82 N5        30.40F HAZE
Summerville    PTSUNNY   70  61  73 CALM      30.40F
Beaufort MCAS  FAIR      71  63  75 E3        30.39F
Beaufort Arpt  FAIR      70  63  78 NE7       30.38F HAZE
Hilton Head Is MOSUNNY   70  63  78 E6        30.40F
Walterboro     FAIR      70  61  73 CALM      30.40F
Allendale      PTSUNNY   66  61  82 CALM      30.39S

...Southern Midlands and Pee Dee...

CITY           SKY/WX    TMP DP  RH WIND       PRES   REMARKS
Georgetown     CLOUDY    61  59  94 CALM      30.42F
Kingstree      CLOUDY    57  52  82 CALM      30.42F
Orangeburg     NOT AVBL
Barnwell         N/A     66  61  82 CALM      30.40F
Aiken          CLOUDY    61  57  88 E3        30.43F
Manning        PTSUNNY   61  37  41 MISG      30.41F
Columbia       CLOUDY    63  56  78 E3        30.40F
Sumter         CLOUDY    58  51  80 E5        30.40F
Florence       CLOUDY    54  52  93 CALM      30.43F
Myrtle Beach   LGT RAIN  62  60  93 NE3       30.43F FOG
N Myrtle Beach LGT RAIN  61  60  97 NW3       30.41S FOG

$$

GAZ063-065-086>088-099>101-113>116-118-119-134>141-150-191800-
...Southeast Georgia...

CITY           SKY/WX    TMP DP  RH WIND       PRES   REMARKS
Savannah Arpt  PTSUNNY   74  64  71 E3        30.39F
Hunter AAF     PTSUNNY   72  67  84 SE5       30.36F
Fort Stewart   FAIR      70  63  77 SE6       30.37F
Statesboro     FAIR      74  60  60 S5        30.38F
Sylvania       FAIR      73  65  76 S3        30.39F
Claxton        PTSUNNY   76  65  69 E7        30.37F

...CSRA, Central and far Southeast Georgia...

CITY           SKY/WX    TMP DP  RH WIND       PRES   REMARKS
Thomson        CLOUDY    62  58  85 SW5       30.44F
Augusta-Bush   CLOUDY    66  59  78 SE5       30.38F
Augusta-Daniel CLOUDY    65  58  78 SE6       30.40F
Swainsboro     PTSUNNY   72  63  73 S9        30.39S
Vidalia        PTSUNNY   73  63  68 SE5       30.38F
Eastman        FAIR      77  54  44 S7        30.38F
Hazlehurst     FAIR      75  60  58 CALM      30.35F
Alma           FAIR      75  63  66 S8        30.37F
Waycross       PTSUNNY   74  64  70 CALM      30.36F
Jesup          PTSUNNY   75  63  64 CALM      30.37F
Baxley         FAIR      73  64  73 SE5       30.35F
Brunswick      FAIR      73  64  73 E3        30.38F
Saint Simons   FAIR      72  64  76 NE8       30.38F

$$

SCZ027-028-034-036>038-045-046-048>050-GAZ119-141-191800-
...Lake and Supplemental Coastal Observations...

STATION/POSITION TIME  TEMP    WIND        PRES    WAVE   SWELL
                       AIR SEA DIR/SP/G            HT/PER HT/PER/DIR
                 (UTC) (F)     (DEG/KT/KT) (MB)    (FT/S) (FT/S/D)
Winyah Bay       1645   59      70/  4     1030.0S
Lake Murray      1650   58     110/  2/  3 1029.1F
ACE Basin NERRS  1645   74     150/  1     1029.0S
Fort Pulaski     1700   61 59  110/  5/  6 1029.4
Sapelo Island    1700   73     360/  5     1029.0

$$

ANZ835-935-AMZ111-154-330-350-352-354-370-450-454-472-191800-
...C-MAN and Buoy Observations...

STATION/POSITION TIME  TEMP    WIND        PRES    WAVE   SWELL
                       AIR SEA DIR/SP/G            HT/PER HT/PER/DIR
                 (UTC) (F)     (DEG/KT/KT) (MB)    (FT/S) (FT/S/D)
Buoy 41004       1710   70 67  130/  8/  8 1028.9
Buoy 41008       1650   59 58   20/  6/  8 1028.5F   3/ 7   3/ 90/ 7
Folly Beach CMAN 1700   61      30/  5/  6 1029.8F
Capers Nearshore 1708   56 57   30/  8/ 10 1029.0F
Fripp Nearshore  1608   61 57   50/  4/  6 1028.6F


STATION/POSITION TIME  TEMP    WIND        PRES    WAVE   SWELL
                       AIR SEA DIR/SP/G            HT/PER HT/PER/DIR
                 (UTC) (F)     (DEG/KT/KT) (MB)    (FT/S) (FT/S/D)
5E St. Marys GA  1700      60                N/A     3/ 7
Frying Pan Buoy  1700          150/ 12/ 14 1029.8
Buoy 41025       1710   68 72  140/ 17/ 21 1031.5
Cape Lookout NC  1700          150/  7/  8 1030.7F
Buoy 41002       1650   71 72  100/ 16/ 17 1030.7F   5/10   3/ 40/10
Buoy 41010       NOT AVBL
St Augustine FL  1700   60 60  360/  8/  9 1028.4F


$$




USA.gov is the U.S. government's official web portal to all federal, state and local government web resources and services.